Hourly Data Report for July 11, 2021

POND INLET A
NUNAVUT
Current Station Operator: NAVCAN

72°41'22.000" N
77°58'08.000" W
61.60 m
2403206
71095
YIO

Download Data

Hourly Data (July 2021)
Hourly Data Report for July 11, 2021
TIME
LST
Temp Definition
°C
Dew Point Definition
°C
Rel Hum Definition
%
Precip. Amount Definition
mm

Wind Dir Definition
10's deg

Wind Spd Definition
km/h
Visibility Definition
km
Stn Press Definition
kPa
Hmdx Definition


Wind Chill Definition


Weather Definition


00:00 4.4 1.8 83 0.0 27 5 16.1 100.08     LegendNANA
01:00 3.3 1.2 86 0.0 22 9 14.5 100.09     LegendNANA
02:00 3.8 1.6 85 0.0 LegendMM 4 12.9 100.08     LegendNANA
03:00 3.3 1.0 85 0.0 LegendMM 5 16.1 100.08     LegendNANA
04:00 2.5 0.4 86 0.0 LegendMM 4 16.1 100.06     LegendNANA
05:00 2.3 0.4 88 0.0 23 8 16.1 100.08     LegendNANA
06:00 4.6 1.3 79 0.0 20 8 16.1 100.03     LegendNANA
07:00 3.5 1.1 84 0.0 34 5 16.1 100.02     LegendNANA
08:00 5.0 1.5 78 0.0 4 15 16.1 99.97     LegendNANA
09:00 7.9 2.6 69 0.0 6 13 16.1 99.90     LegendNANA
10:00 8.4 2.7 67 0.0 4 13 16.1 99.83     LegendNANA
11:00 10.0 2.5 59 0.0 5 13 16.1 99.77     LegendNANA
12:00 9.6 2.4 61 0.0 6 18 16.1 99.71     LegendNANA
13:00 12.6 3.2 53 0.0 5 13 16.1 99.67     LegendNANA
14:00 10.2 2.4 58 0.0 5 22 16.1 99.61     LegendNANA
15:00 10.1 2.2 58 0.0 8 13 16.1 99.61     LegendNANA
16:00 11.1 2.7 56 0.0   0 16.1 99.60     LegendNANA
17:00 9.2 2.7 64 0.0 6 9 16.1 99.61     LegendNANA
18:00 6.2 2.7 78 0.0 6 13 16.1 99.63     Rain
19:00 7.0 3.6 79 0.0 7 9 16.1 99.62     LegendNANA
20:00 5.8 3.9 87 0.0 8 8 16.1 99.60     Rain
21:00 3.6 2.1 90 0.0 6 9 16.1 99.58     LegendNANA
22:00 7.8 4.7 81 0.2 4 8 16.1 99.53     Rain
23:00 6.1 4.4 89 0.2 6 9 16.1 99.49     Rain

Notes on Data Quality.

Legend

  • E = Estimated
  • M = Missing
  • NA = Not Available*
  • [empty] = Indicates an unobserved value
Date modified: